Regional Weather Roundup
Issued by NWS

Home | Current Version | Previous Version | Graphics & Text | Print | Product List | Glossary Off
Versions: 1 2 3 4 5 6 7 8 9 10 11 12 13 14 15 16 17 18 19 20 21 22 23 24 25 26 27 28 29 30 31 32 33 34 35 36 37 38 39 40 41 42 43 44 45 46 47 48 49 50

130
ASUS43 KDTX 081801
RWRMI
MICHIGAN HOURLY REGIONAL WEATHER ROUNDUP
NATIONAL WEATHER SERVICE DETROIT/PONTIAC MI
100 PM EST MON FEB 08 2016

NOTE: "FAIR" INDICATES FEW OR NO CLOUDS BELOW 12,000 FEET WITH NO
SIGNIFICANT WEATHER AND/OR OBSTRUCTION TO VISIBILITY.

MIZ047>049-052>055-059>063-066>070-074>076-081>083-081900-
SOUTHEAST LOWER MICHIGAN

CITY           SKY/WX    TMP DP  RH WIND       PRES   REMARKS
ADRIAN         MOSUNNY   41  28  60 NW12      29.58F
6HR MIN TEMP:  30; 6HR MAX TEMP:  41;

ALMA           PTSUNNY   40  31  68 W10G17    29.58F WCI  34
6HR MIN TEMP:  26; 6HR MAX TEMP:  40;

ANN ARBOR      CLOUDY    40  28  62 NW7       29.57F
BAD AXE        CLOUDY    39  33  77 W3        29.57F
CARO           CLOUDY    39  32  75 W5        29.57F
DETROIT CITY   CLOUDY    40  28  62 W6        29.58F
6HR MIN TEMP:  38; 6HR MAX TEMP:  40;

DETROIT        CLOUDY    41  29  62 NW3       29.59F
6HR MIN TEMP:  35; 6HR MAX TEMP:  41;

FLINT          CLOUDY    41  31  67 W6        29.58F
GROSSE ILE     CLOUDY    41  30  65 CALM      29.57F
HILLSDALE      CLOUDY    37  29  71 W7        29.57F WCI  32
6HR MIN TEMP:  29; 6HR MAX TEMP:  37;

HOWELL         CLOUDY    38  31  77 W7        29.57F WCI  32
6HR MIN TEMP:  31; 6HR MAX TEMP:  38;


CITY           SKY/WX    TMP DP  RH WIND       PRES   REMARKS
JACKSON        PTSUNNY   38  27  64 NW9       29.57F WCI  31
6HR MIN TEMP:  30; 6HR MAX TEMP:  40;

LAMBERTVILLE   CLOUDY    40  31  70 W6        29.59F
6HR MIN TEMP:  32; 6HR MAX TEMP:  40;

LANSING        MOSUNNY   38  29  70 W9        29.59F WCI  31
6HR MIN TEMP:  29; 6HR MAX TEMP:  38;

LAPEER         CLOUDY    38  31  74 W7        29.57F WCI  33
6HR MIN TEMP:  34; 6HR MAX TEMP:  38;

MASON          CLOUDY    38  30  73 SW5       29.58F WCI  34
MONROE         CLOUDY    39  30  71 CALM      29.58F
6HR MIN TEMP:  32; 6HR MAX TEMP:  39;

MT. CLEMENS    DRIZZLE   41  32  70 NW2       29.56F
PONTIAC        CLOUDY    39  28  64 NW7       29.56F WCI  34
6HR MIN TEMP:  33; 6HR MAX TEMP:  39;

PORT HOPE        N/A     36  32  85 NW5       29.56F WCI  32
6HR MIN TEMP:  34; 6HR MAX TEMP:  39;

PORT HURON     DRIZZLE   37  36  93 CALM      29.57F
TRI CITIES     CLOUDY    40  31  70 NW5       29.58F
6HR MIN TEMP:  32; 6HR MAX TEMP:  40;

MIDLAND        FAIR      41  29  60 W6        29.57F
6HR MIN TEMP:  28; 6HR MAX TEMP:  41;

TROY           CLOUDY    40  28  62 W5        29.58F
SAGINAW HB     CLOUDY    39  32  75 SW7       29.58F WCI  34
$$
MIZ043>046-050>051-056>058-064>065-071>073-077>080-081900-
SOUTHWEST LOWER MICHIGAN

CITY           SKY/WX    TMP DP  RH WIND       PRES   REMARKS
BATTLE CREEK   CLOUDY    35  28  75 SW9       29.60F WCI  28
6HR MIN TEMP:  25; 6HR MAX TEMP:  36;

BENTON HARBOR  CLOUDY    34  30  85 W12       29.62F WCI  25
6HR MIN TEMP:  30; 6HR MAX TEMP:  35;

BIG RAPIDS     SUNNY     38  28  68 CALM      29.57F
6HR MIN TEMP:  28; 6HR MAX TEMP:  38;

COLDWATER      PTSUNNY   35  29  79 W8        29.59F WCI  29
6HR MIN TEMP:  27; 6HR MAX TEMP:  39;

FREMONT        CLOUDY    38  27  64 CALM      29.58F
HOLLAND        CLOUDY    39  31  72 SW12      29.60F WCI  32
6HR MIN TEMP:  29; 6HR MAX TEMP:  40;

GRAND RAPIDS   PTSUNNY   38  28  67 W7        29.59F WCI  33
6HR MIN TEMP:  27; 6HR MAX TEMP:  39;

IONIA          CLOUDY    38  28  66 S7        29.58F WCI  33
6HR MIN TEMP:  27; 6HR MAX TEMP:  40;

KALAMAZOO      CLOUDY    36  28  73 SW3       29.60F
6HR MIN TEMP:  25; 6HR MAX TEMP:  36;

LUDINGTON      CLOUDY    37  28  70 W3        29.60F
6HR MIN TEMP:  28; 6HR MAX TEMP:  37;

MARSHALL       PTSUNNY   37  28  69 W10       29.58F WCI  30
6HR MIN TEMP:  27; 6HR MAX TEMP:  38;

MOUNT PLEASANT MOSUNNY   41  28  61 W3        29.57F
6HR MIN TEMP:  27; 6HR MAX TEMP:  41;

MUSKEGON       PTSUNNY   42  28  57 SW9       29.59F
6HR MIN TEMP:  28; 6HR MAX TEMP:  43;

SOUTH HAVEN    LGT SNOW  33  32  96 W7        29.61F WCI  27
$$
MIZ016>042-081900-
NORTHERN LOWER MICHIGAN

CITY           SKY/WX    TMP DP  RH WIND       PRES   REMARKS
ALPENA         CLOUDY    40  31  70 NW5       29.58F
6HR MIN TEMP:  25; 6HR MAX TEMP:  41;

BEAVER ISLAND  CLOUDY    34  32  92 NW7G17    29.61S WCI  28
6HR MIN TEMP:  28; 6HR MAX TEMP:  38;

BELLAIRE       MOSUNNY   38  31  74 CALM      29.59F
6HR MIN TEMP:  23; 6HR MAX TEMP:  39;

CADILLAC       CLOUDY    36  26  65 SW6       29.55F WCI  31
CHARLEVOIX     CLOUDY    37  32  81 CALM      29.62F
6HR MIN TEMP:  28; 6HR MAX TEMP:  37;

FRANKFORT      CLOUDY    37  32  82 SW3       29.60S
GAYLORD        CLOUDY    34  30  85 S3        29.56F
6HR MIN TEMP:  27; 6HR MAX TEMP:  35;

GRAYLING       CLOUDY    32  32  99 CALM      29.57F
HARBOR SPRINGS CLOUDY    37  31  78 CALM      29.59S
HOUGHTON LAKE  SUNNY     37  27  67 W6        29.56F WCI  32
6HR MIN TEMP:  21; 6HR MAX TEMP:  37;

MANISTEE       CLOUDY    36  27  69 W7        29.60F WCI  30
OSCODA         CLOUDY    38  32  78 NE3       29.57F
PELLSTON       CLOUDY    39  30  70 CALM      29.59F
6HR MIN TEMP:  19; 6HR MAX TEMP:  40;

ROGERS CITY    MOSUNNY   36  31  82 N5        29.60F WCI  32
TRAVERSE CITY  PTSUNNY   38  30  73 NE6       29.58F WCI  33
6HR MIN TEMP:  29; 6HR MAX TEMP:  38;

$$
MIZ007>008-015-081900-
EASTERN UPPER MICHIGAN

CITY           SKY/WX    TMP DP  RH WIND       PRES   REMARKS
KINROSS        PTSUNNY   36  36 100 E7        29.59F WCI  30
6HR MIN TEMP:  32; 6HR MAX TEMP:  39;

MACKINAC ISLAN SUNNY     37  32  81 N5        29.59F WCI  34
6HR MIN TEMP:  30; 6HR MAX TEMP:  39;

NEWBERRY       CLOUDY    33  32  96 W12G17    29.60S WCI  24
6HR MIN TEMP:  32; 6HR MAX TEMP:  34;

S. S. MARIE    CLOUDY    36  32  85 VRB3      29.59F
6HR MIN TEMP:  34; 6HR MAX TEMP:  36;

$$
MIZ004>006-011>014-085-081900-
CENTRAL UPPER MICHIGAN

CITY           SKY/WX    TMP DP  RH WIND       PRES   REMARKS
MANISTIQUE     CLOUDY    30  25  83 N14G20    29.62F WCI  19
6HR MIN TEMP:  30; 6HR MAX TEMP:  34;

ESCANABA       CLOUDY    28  23  80 N9G16     29.65S WCI  20
6HR MIN TEMP:  28; 6HR MAX TEMP:  34;

MENOMINEE      CLOUDY    30  25  80 N9        29.64R WCI  22
6HR MIN TEMP:  30; 6HR MAX TEMP:  34;

SAWYER-GWINN   CLOUDY    21  18  86 N10       29.65S WCI  10
$$
MIZ001>003-009>011-084-081900-
WESTERN UPPER MICHIGAN

CITY           SKY/WX    TMP DP  RH WIND       PRES   REMARKS
IRON MOUNTAIN  LGT SNOW  22  15  75 NW17      29.65S VSB 3/4 WCI   8
6HR MIN TEMP:  22; 6HR MAX TEMP:  31; 6HR PCP: TRACE;

HOUGHTON       LGT SNOW  15   8  73 NW16      29.71S WCI  -1
6HR MIN TEMP:  14; 6HR MAX TEMP:  18; 6HR PCP: TRACE;

COPPER HARBOR    N/A     19  15  84 N21G28    29.72R WCI   3
6HR MIN TEMP:  19; 6HR MAX TEMP:  25;

IRONWOOD       CLOUDY    16  12  86 NW13      29.75S WCI   2
6HR MIN TEMP:  16; 6HR MAX TEMP:  21;

$$

ABBREVIATIONS USED IN REMARKS
   TC - TEMPERATURE IN CELSIUS
  WCI - WIND CHILL INDEX
   HX - HEAT INDEX
  VSB - VISIBILITY





USA.gov is the U.S. government's official web portal to all federal, state and local government web resources and services.